When you browse on this site, cookies collect data to enhance your experience and personalize the content and advertising you see.
Visit our Privacy Policy to learn more. By continuing to use the site, you agree to this use of cookies and data.

Hourly Weather Dhaka

Today, 10 August, Monday

Time Temperature Precipitation Wind Pressure Humidity
00:00 +30°C° 0.2 mm 4 mps 750 mmHg 84%
01:00 +30°C° 0.3 mm 3 mps 750 mmHg 85%
02:00 +30°C° 0.3 mm 3 mps 750 mmHg 86%
03:00 +30°C° 0.3 mm 3 mps 750 mmHg 87%
04:00 +30°C° 0.1 mm 3 mps 750 mmHg 87%
05:00 +30°C° 0.1 mm 3 mps 750 mmHg 87%
06:00 +30°C° 0.1 mm 4 mps 750 mmHg 87%
07:00 +32°C° 0.1 mm 4 mps 751 mmHg 82%
08:00 +33°C° 0.1 mm 5 mps 751 mmHg 77%
09:00 +34°C° 0.1 mm 5 mps 751 mmHg 72%
10:00 +34°C° 0.9 mm 5 mps 751 mmHg 70%
11:00 +35°C° 0.9 mm 5 mps 751 mmHg 68%
12:00 +36°C° 0.9 mm 5 mps 750 mmHg 66%
13:00 +36°C° 2 mm 5 mps 750 mmHg 67%
14:00 +36°C° 2 mm 6 mps 749 mmHg 67%
15:00 +36°C° 2 mm 6 mps 749 mmHg 67%
16:00 +35°C° 0.6 mm 6 mps 748 mmHg 70%
17:00 +34°C° 0.6 mm 5 mps 748 mmHg 73%
18:00 +33°C° 0.6 mm 5 mps 748 mmHg 76%
19:00 +33°C° 0.1 mm 5 mps 749 mmHg 78%
20:00 +32°C° 0.1 mm 5 mps 749 mmHg 80%
21:00 +32°C° 0.1 mm 4 mps 750 mmHg 82%
22:00 +32°C° 0.9 mm 4 mps 750 mmHg 83%
23:00 +30°C° 0.9 mm 4 mps 750 mmHg 84%

Tomorrow, 11 August, Tuesday

Time Temperature Precipitation Wind Pressure Humidity
00:00 +30°C° 0.9 mm 4 mps 750 mmHg 85%
01:00 +30°C° 0.9 mm 4 mps 750 mmHg 86%
02:00 +30°C° 0.9 mm 4 mps 749 mmHg 87%
03:00 +30°C° 0.9 mm 4 mps 749 mmHg 88%
04:00 +30°C° 0.6 mm 4 mps 749 mmHg 88%
05:00 +29°C° 0.6 mm 4 mps 749 mmHg 88%
06:00 +29°C° 0.6 mm 4 mps 749 mmHg 88%
07:00 +30°C° 0 mm 4 mps 750 mmHg 87%
08:00 +30°C° 0 mm 4 mps 750 mmHg 85%
09:00 +30°C° 0 mm 4 mps 750 mmHg 84%
10:00 +32°C° 0.1 mm 4 mps 750 mmHg 81%
11:00 +32°C° 0.1 mm 4 mps 750 mmHg 79%
12:00 +33°C° 0.1 mm 4 mps 750 mmHg 76%
13:00 +34°C° 0.2 mm 4 mps 749 mmHg 74%
14:00 +34°C° 0.2 mm 4 mps 749 mmHg 71%
15:00 +35°C° 0.2 mm 5 mps 748 mmHg 69%
16:00 +34°C° 0.1 mm 4 mps 748 mmHg 70%
17:00 +34°C° 0.1 mm 4 mps 748 mmHg 71%
18:00 +34°C° 0.1 mm 4 mps 748 mmHg 72%
19:00 +33°C° 0 mm 4 mps 749 mmHg 75%
20:00 +32°C° 0 mm 4 mps 750 mmHg 79%
21:00 +30°C° 0 mm 4 mps 750 mmHg 82%
22:00 +30°C° 0 mm 4 mps 750 mmHg 83%
23:00 +30°C° 0 mm 4 mps 750 mmHg 85%

Day after tomorrow, 12 August, Wednesday

Time Temperature Precipitation Wind Pressure Humidity
00:00 +30°C° 0 mm 4 mps 750 mmHg 86%
01:00 +30°C° 0 mm 4 mps 750 mmHg 86%
02:00 +30°C° 0 mm 4 mps 749 mmHg 85%
03:00 +30°C° 0 mm 4 mps 749 mmHg 85%
04:00 +30°C° 0 mm 4 mps 749 mmHg 86%
05:00 +29°C° 0 mm 4 mps 749 mmHg 87%
06:00 +29°C° 0 mm 5 mps 749 mmHg 87%
07:00 +30°C° 0 mm 5 mps 750 mmHg 83%
08:00 +33°C° 0 mm 6 mps 750 mmHg 78%
09:00 +34°C° 0 mm 6 mps 751 mmHg 73%
10:00 +35°C° 0.4 mm 6 mps 750 mmHg 70%
11:00 +35°C° 0.4 mm 6 mps 750 mmHg 68%
12:00 +36°C° 0.4 mm 7 mps 750 mmHg 66%
13:00 +36°C° 0.2 mm 7 mps 749 mmHg 65%
14:00 +36°C° 0.2 mm 7 mps 748 mmHg 63%
15:00 +36°C° 0.2 mm 7 mps 748 mmHg 62%
16:00 +36°C° 0 mm 6 mps 748 mmHg 65%
17:00 +35°C° 0 mm 6 mps 748 mmHg 68%
18:00 +34°C° 0 mm 5 mps 747 mmHg 71%
19:00 +33°C° 0 mm 5 mps 748 mmHg 74%
20:00 +33°C° 0 mm 5 mps 749 mmHg 77%
21:00 +32°C° 0 mm 5 mps 750 mmHg 80%
22:00 +32°C° 0 mm 5 mps 750 mmHg 81%
23:00 +30°C° 0 mm 4 mps 750 mmHg 82%

13 August, Thursday

Time Temperature Precipitation Wind Pressure Humidity
00:00 +30°C° 0 mm 4 mps 750 mmHg 83%
01:00 +30°C° 0 mm 4 mps 749 mmHg 84%
02:00 +30°C° 0 mm 4 mps 749 mmHg 85%
03:00 +30°C° 0 mm 3 mps 748 mmHg 86%
04:00 +29°C° 0 mm 3 mps 748 mmHg 87%
05:00 +29°C° 0 mm 4 mps 748 mmHg 87%
06:00 +29°C° 0 mm 4 mps 748 mmHg 88%
07:00 +30°C° 0.1 mm 4 mps 749 mmHg 83%
08:00 +32°C° 0.1 mm 5 mps 749 mmHg 78%
09:00 +34°C° 0.1 mm 6 mps 750 mmHg 73%
10:00 +34°C° 0.3 mm 6 mps 749 mmHg 69%
11:00 +35°C° 0.3 mm 6 mps 749 mmHg 65%
12:00 +36°C° 0.3 mm 6 mps 749 mmHg 61%
13:00 +36°C° 0.1 mm 6 mps 748 mmHg 60%
14:00 +38°C° 0.1 mm 6 mps 747 mmHg 60%
15:00 +38°C° 0.1 mm 6 mps 746 mmHg 59%
16:00 +36°C° 0 mm 6 mps 746 mmHg 62%
17:00 +35°C° 0 mm 5 mps 746 mmHg 65%
18:00 +34°C° 0 mm 5 mps 746 mmHg 68%
19:00 +33°C° 0 mm 5 mps 746 mmHg 71%
20:00 +33°C° 0 mm 5 mps 747 mmHg 75%
21:00 +32°C° 0 mm 4 mps 748 mmHg 78%
22:00 +32°C° 0 mm 4 mps 748 mmHg 79%
23:00 +32°C° 0 mm 4 mps 748 mmHg 81%

14 August, Friday

Time Temperature Precipitation Wind Pressure Humidity
00:00 +30°C° 0 mm 4 mps 748 mmHg 83%
01:00 +30°C° 0 mm 4 mps 748 mmHg 84%
02:00 +30°C° 0 mm 4 mps 747 mmHg 85%
03:00 +30°C° 0 mm 4 mps 747 mmHg 86%
04:00 +30°C° 0.3 mm 4 mps 747 mmHg 86%
05:00 +30°C° 0.3 mm 4 mps 748 mmHg 87%
06:00 +29°C° 0.3 mm 4 mps 748 mmHg 87%
07:00 +32°C° 0.1 mm 5 mps 748 mmHg 82%
08:00 +33°C° 0.1 mm 5 mps 749 mmHg 77%
09:00 +34°C° 0.1 mm 6 mps 749 mmHg 72%
10:00 +35°C° 0.7 mm 7 mps 749 mmHg 69%
11:00 +36°C° 0.7 mm 7 mps 748 mmHg 66%
12:00 +37°C° 0.7 mm 8 mps 748 mmHg 63%
13:00 +37°C° 0.4 mm 8 mps 747 mmHg 63%
14:00 +37°C° 0.4 mm 8 mps 747 mmHg 63%
15:00 +37°C° 0.4 mm 8 mps 746 mmHg 63%
16:00 +35°C° 0 mm 7 mps 746 mmHg 67%
17:00 +34°C° 0 mm 6 mps 746 mmHg 70%
18:00 +33°C° 0 mm 6 mps 746 mmHg 74%
19:00 +33°C° 0 mm 6 mps 747 mmHg 75%
20:00 +32°C° 0 mm 5 mps 747 mmHg 77%
21:00 +32°C° 0 mm 5 mps 748 mmHg 78%
22:00 +32°C° 0.1 mm 5 mps 748 mmHg 80%
23:00 +32°C° 0.1 mm 5 mps 748 mmHg 81%

15 August, Saturday

Time Temperature Precipitation Wind Pressure Humidity
00:00 +30°C° 0.1 mm 4 mps 748 mmHg 82%
01:00 +30°C° 0.1 mm 4 mps 748 mmHg 83%
02:00 +30°C° 0.1 mm 4 mps 748 mmHg 83%
03:00 +30°C° 0.1 mm 4 mps 748 mmHg 84%
04:00 +30°C° 0.1 mm 4 mps 748 mmHg 85%
05:00 +29°C° 0.1 mm 4 mps 748 mmHg 86%
06:00 +29°C° 0.1 mm 4 mps 748 mmHg 86%
07:00 +32°C° 0.1 mm 4 mps 748 mmHg 81%
08:00 +33°C° 0.1 mm 4 mps 748 mmHg 75%
09:00 +34°C° 0.1 mm 5 mps 748 mmHg 69%
10:00 +35°C° 0.7 mm 5 mps 748 mmHg 66%
11:00 +36°C° 0.7 mm 5 mps 748 mmHg 64%
12:00 +38°C° 0.7 mm 6 mps 747 mmHg 61%
13:00 +38°C° 0.9 mm 6 mps 747 mmHg 61%
14:00 +38°C° 0.9 mm 7 mps 746 mmHg 61%
15:00 +38°C° 0.9 mm 7 mps 746 mmHg 61%
16:00 +36°C° 0.8 mm 7 mps 746 mmHg 65%
17:00 +35°C° 0.8 mm 6 mps 746 mmHg 69%
18:00 +34°C° 0.8 mm 6 mps 746 mmHg 72%
19:00 +33°C° 0 mm 6 mps 747 mmHg 75%
20:00 +32°C° 0 mm 6 mps 748 mmHg 77%
21:00 +32°C° 0 mm 5 mps 748 mmHg 80%
22:00 +30°C° 0 mm 5 mps 748 mmHg 81%
23:00 +30°C° 0 mm 5 mps 749 mmHg 82%
Show more